User: anonymous   Login
Location: Feydey
(46.3431°N, 7.0106°E)
Time: 09:03:31
(UTC+00:00)
Language:

Cosmos 2100 Rocket - Orbit

View from above orbital plane
View from above orbital plane
View from above satellite
View from above satellite

Ground track
Ground track

The orbit data is extracted from the following two-line orbital elements,

1 20805U 90083B   21267.75050328  .00000073  00000-0  59688-4 0  9993
2 20805  82.9399 342.2498 0030440 356.9347 123.2037 13.75927204557721
Epoch (UTC): 24 September 2021 18:00:43
Eccentricity: 0.0030440
inclination: 82.9399°
perigee height: 956 km
apogee height: 1001 km
right ascension of ascending node: 342.2498°
argument of perigee: 356.9347°
revolutions per day: 13.75927204
mean anomaly at epoch: 123.2037°
orbit number at epoch: 55772

The dashed part of the orbit path shows where the satellite is in the earth's shadow,  

DLR